Regional Weather Roundup
Issued by NWS

Home | Current Version | Previous Version | Graphics & Text | Print | Product List | Glossary On
Versions: 1 2 3 4 5 6 7 8 9 10 11 12 13 14 15 16 17 18 19 20 21 22 23 24 25 26 27 28 29 30 31 32 33 34 35 36 37 38 39 40 41 42 43 44 45 46 47 48 49 50
000
ASUS43 KIND 200709
RWRIN

WEATHER ROUNDUP FOR INDIANA
NATIONAL WEATHER SERVICE INDIANAPOLIS IN
300 AM EDT SUN AUG 20 2017

NOTE: "FAIR" INDICATES FEW OR NO CLOUDS BELOW 12,000 FEET WITH NO
SIGNIFICANT WEATHER AND/OR OBSTRUCTIONS TO VISIBILITY.

* - STATION DOES NOT REPORT WEATHER SUCH AS PRECIPITATION OR FOG.

+ - STATION NOT QUALITY CONTROLLED BY THE NATIONAL WEATHER SERVICE.
    USE DATA WITH CAUTION...ESPECIALLY DEWPOINT AND RELATIVE
    HUMIDITY OBSERVATIONS.

INZ001>003-010>013-019-020-200800-
NORTHWEST INDIANA

CITY           SKY/WX    TMP DP  RH WIND       PRES   REMARKS
GARY /AIRPORT/ CLEAR     65  58  79 SE5       30.02S
KNOX *+        CLEAR     55  55 100 CALM      30.02S
LA PORTE +     CLEAR     58  56  94 CALM      30.04S
MICHIGAN CITY+ CLEAR     55  55 100 CALM      30.03S
MONTICELLO +   CLEAR     65  63  95 CALM      30.02R
RENSSELAER +   CLEAR     63  55  77 NE3       30.03R
VALPARAISO     CLEAR     60  57  89 NE3       30.03S

$$

LMZ046-743>745-200800-
SOUTHERN LAKE MICHIGAN

STATION/POSITION TIME  TEMP    WIND        PRES    WAVE
                       AIR SEA DIR/SP/G            HT
                 (UTC) (F)     (DEG/KT/KT) (MB)    (FT)
BURNS HARBOR     0640   71     140/  9/ 11 1016.9R
MICHIGAN CITY    0640   66     130/  9/  9   N/A
5NW MICH CITY    0700   70 74  150/  8/ 10   N/A     1

$$

INZ004-005-014>016-021>024-200800-
NORTH CENTRAL INDIANA

CITY           SKY/WX    TMP DP  RH WIND       PRES   REMARKS
GOSHEN         CLEAR     59  55  87 CALM      30.04R
LOGANSPORT +   CLEAR     61  59  94 CALM      30.04R
PERU/GRISSOM   CLEAR     65  61  88 CALM      30.02S
ROCHESTER +    CLEAR     61  61 100 CALM      30.04S
SOUTH BEND     CLEAR     58  58 100 CALM      30.04S
WARSAW +       CLEAR     59  59 100 CALM      30.04S FOG

$$

INZ006>009-017-018-025>027-200800-
NORTHEAST INDIANA

CITY           SKY/WX    TMP DP  RH WIND       PRES   REMARKS
AUBURN +       CLEAR     61  59  94 CALM      30.05R
FORT WAYNE     CLEAR     61  58  90 CALM      30.04R
HUNTINGTON +   CLEAR     60  59  96 CALM      30.04R FOG

$$

INZ028-029-035-036-043>045-051>053-200800-
WEST CENTRAL INDIANA

CITY           SKY/WX    TMP DP  RH WIND       PRES   REMARKS
GREENCASTLE +  CLEAR     64  63  94 CALM      30.02F
LAFAYETTE      CLEAR     65  62  90 CALM      30.01R
TERRE HAUTE    CLEAR     65  63  93 CALM      30.01R

$$

INZ030>032-037>040-046>048-054>057-064-065-200800-
CENTRAL INDIANA

CITY           SKY/WX    TMP DP  RH WIND       PRES   REMARKS
CP ATTERBURY + PTCLDY    64  63  94 CALM      30.02S FOG
FRANKFORT +    PTCLDY    65  63  91 SE3       30.04S
GREENWOOD *+   PTCLDY    70  62  75 E3        30.03S
INDIANAPOLIS   PTCLDY    72  61  68 E6        30.01S
-EAGLE CREEK   CLEAR     71  60  68 E5        30.02S
KOKOMO +       CLEAR     62  60  93 CALM      30.04S
MARION +       CLEAR     61  59  94 CALM      30.04S
MT COMFORT *+  CLEAR     64  61  88 SE3       30.03F
SHELBYVILLE    PTCLDY    67  62  84 NE3       30.01S
ZIONSVILLE +   CLEAR     63  61  93 CALM      30.04R

$$

INZ033-034-041-042-049-050-058-059-200800-
EAST CENTRAL INDIANA

CITY           SKY/WX    TMP DP  RH WIND       PRES   REMARKS
MUNCIE         PTCLDY    69  60  73 S3        30.04R
RICHMOND +     CLOUDY    64  63  94 NE3       30.05F FOG

$$

INZ060-061-067>069-081>083-085>088-200800-
SOUTHWEST INDIANA

CITY           SKY/WX    TMP DP  RH WIND       PRES   REMARKS
EVANSVILLE     CLEAR     69  68  96 CALM      29.99F
HUNTINGBURG +  CLEAR     69  68  96 CALM      30.01S
WASHINGTON +   CLEAR     70  68  93 MISG      30.00R

$$

INZ062-063-066-070>080-084-089>092-200800-
SOUTH CENTRAL AND SOUTHEAST INDIANA

CITY           SKY/WX    TMP DP  RH WIND       PRES   REMARKS
BEDFORD +      CLEAR     70  66  88 CALM      30.01R
BLOOMINGTON    CLEAR     68  64  87 CALM      30.02R
MADISON *+     CLEAR     68  64  88 CALM      30.04S
NORTH VERNON + PTCLDY    68  66  94 CALM      30.02S
SEYMOUR +      CLEAR     68  68 100 CALM      30.01S FOG

$$




USA.gov is the U.S. government's official web portal to all federal, state and local government web resources and services.